World > North America > United States > Oregon   City of Ontario, Oregon

Ontario, Oregon Regional Weather

Lat: 44.02N, Lon: 116.97W
Wx Zone: ORZ064Web Search

Ads allow us to feed your daily addiction for the world's greatest weather information. We're determined to offer quality sponsors, in the least annoying way possible.

Feedback


°F Click to change Ontario hourly weather to Imperial units.Click to change Ontario hourly weather to Metric units. °C
Ontario Weather Map
UTC Time: 5/12/2021, 14:44
Your Time:

Ontario, OR Regional Weather

Expires:202105121500;;001245
ASUS46 KPQR 121410
RWROR 

OREGON REGIONAL WEATHER ROUNDUP
NATIONAL WEATHER SERVICE PORTLAND OR
700 AM PDT WED MAY 12 2021

NOTE: "FAIR" INDICATES FEW OR NO CLOUDS BELOW 12,000 FEET WITH
NO SIGNIFICANT WEATHER AND/OR OBSTRUCTIONS TO VISIBILITY.


ORZ029>031-041-044-049-050-061>064-502-503-505>511-121500-
EASTERN OREGON

  
CITY           SKY/WX    TMP DP  RH WIND       PRES   REMARKS
MADRAS         NOT AVBL                                               
REDMOND        SUNNY     47  29  49 SE5       30.12R                  
BEND           SUNNY     46  32  57 S5        30.14S                  
PRINEVILLE     SUNNY     46  30  53 CALM      30.13S                  
KLAMATH FALLS  SUNNY     44  33  65 CALM      30.11R                  
LAKEVIEW       SUNNY     40  28  62 N3        30.14R                  
HERMISTON      PTSUNNY   50  37  61 SE3       30.09R                  
PENDLETON      PTSUNNY   52  39  61 E3        30.09R                  
JOHN DAY       SUNNY     44  32  60 SE8       30.14S                  
MEACHAM        MOSUNNY   41  32  70 CALM      30.13S                  
LA GRANDE      MOSUNNY   44  35  70 CALM      30.16S                  
BAKER CITY     MOSUNNY   42  35  76 SE3       30.16R                  
BURNS          SUNNY     46  29  51 W5        30.14R                  
ROME             N/A     46  24  42 CALM      30.14R                  
ONTARIO        MOSUNNY   47  31  53 CALM      30.16R                  
$$


OTHER REGIONAL REPORTS
  
CITY           SKY/WX    TMP DP  RH WIND       PRES   REMARKS
SEATTLE        PTSUNNY   56  45  66 N6        30.13S                  
SPOKANE        PTSUNNY   50  38  63 E8        30.14S                  
VANCOUVER BC   LGT RAIN  54  48  82 NE5       30.14S                  
PRINCE GEORGE  CLOUDY    46  37  71 S5        30.08R                  
DAWSON CREEK   SUNNY     41  30  65 VRB2      30.03F                  
WHITEHORSE     MOCLDY    32  27  80 CALM      30.04S                  
BOISE          MOSUNNY   53  30  41 E8        30.14R                  
REDDING        SUNNY     58  44  60 CALM      29.92R                  
SAN FRANCISCO  CLOUDY    52  47  83 W8        29.97R                  

$$

  

SKY/WX - Weather  TMP - Temperature  DP - Dew Point  RH - Relative Humidity
WIND - Wind Direction/Speed PRES - Barometric Pressure VSB - Visibility
WCI - Wind Chill Index E13G22 Wind - East Wind 13 mph/Gusts of 22 mph